Time,TemperatureF,DewpointF,PressureIn,WindDirection,WindDirectionDegrees,WindSpeedMPH,WindSpeedGustMPH,Humidity,HourlyPrecipIn,Conditions,Clouds,dailyrainin,SoftwareType,DateUTC
2013-09-10 00:04:00,70.2,55.6,29.66,SSE,163,4.9,10.1,60,0.00,,,0.00,meteobridge,2013-09-10 06:04:00,
2013-09-10 00:09:00,70.2,55.6,29.66,SSE,150,4.9,12.1,60,0.00,,,0.00,meteobridge,2013-09-10 06:09:00,
2013-09-10 00:14:00,70.2,55.6,29.66,SSE,148,4.9,8.9,60,0.00,,,0.00,meteobridge,2013-09-10 06:14:00,
2013-09-10 00:19:00,70.2,55.6,29.66,SE,133,4.0,11.0,60,0.00,,,0.00,meteobridge,2013-09-10 06:19:00,
2013-09-10 00:24:00,70.2,55.6,29.66,SSE,164,4.9,8.1,60,0.00,,,0.00,meteobridge,2013-09-10 06:24:00,
2013-09-10 00:29:00,70.3,55.4,29.66,SSE,156,2.9,8.1,59,0.00,,,0.00,meteobridge,2013-09-10 06:29:00,
2013-09-10 00:34:00,70.2,55.2,29.66,SE,143,4.0,6.0,59,0.00,,,0.00,meteobridge,2013-09-10 06:34:00,
2013-09-10 00:39:00,70.2,54.7,29.66,SE,146,4.9,8.1,58,0.00,,,0.00,meteobridge,2013-09-10 06:39:00,
2013-09-10 00:44:00,70.0,54.5,29.66,South,182,4.9,6.0,58,0.00,,,0.00,meteobridge,2013-09-10 06:44:00,
2013-09-10 00:49:00,70.0,54.5,29.66,ESE,123,10.1,10.1,58,0.00,,,0.00,meteobridge,2013-09-10 06:49:00,
2013-09-10 00:54:00,69.6,54.1,29.66,SSE,155,0.9,2.9,58,0.00,,,0.00,meteobridge,2013-09-10 06:54:00,
2013-09-10 00:59:00,69.4,54.5,29.66,ESE,115,2.9,6.0,59,0.00,,,0.00,meteobridge,2013-09-10 06:59:00,
2013-09-10 01:04:00,69.4,54.5,29.66,SSE,166,2.9,6.9,59,0.00,,,0.00,meteobridge,2013-09-10 07:04:00,
2013-09-10 01:09:00,69.4,54.5,29.66,SSE,164,4.0,11.0,59,0.00,,,0.00,meteobridge,2013-09-10 07:09:00,
2013-09-10 01:14:00,69.4,54.5,29.66,ESE,119,8.1,10.1,59,0.00,,,0.00,meteobridge,2013-09-10 07:14:00,
2013-09-10 01:19:00,69.4,54.5,29.66,SE,134,2.9,4.9,59,0.00,,,0.00,meteobridge,2013-09-10 07:19:00,
2013-09-10 01:24:00,69.4,54.5,29.66,SSE,148,8.9,8.9,59,0.00,,,0.00,meteobridge,2013-09-10 07:24:00,
2013-09-10 01:29:00,69.4,54.5,29.66,ESE,123,4.9,8.9,59,0.00,,,0.00,meteobridge,2013-09-10 07:29:00,
2013-09-10 01:35:00,69.6,54.7,29.66,SE,146,4.0,8.1,59,0.00,,,0.00,meteobridge,2013-09-10 07:35:00,
2013-09-10 01:40:00,69.6,54.7,29.67,SSE,166,0.9,6.0,59,0.00,,,0.00,meteobridge,2013-09-10 07:40:00,
2013-09-10 01:45:00,69.6,54.7,29.67,SE,142,4.0,6.9,59,0.00,,,0.00,meteobridge,2013-09-10 07:45:00,
2013-09-10 01:50:00,69.4,54.5,29.67,SE,134,2.9,6.9,59,0.00,,,0.00,meteobridge,2013-09-10 07:50:00,
2013-09-10 01:55:00,69.3,54.3,29.66,South,179,2.0,6.0,59,0.00,,,0.00,meteobridge,2013-09-10 07:55:00,
2013-09-10 02:00:00,69.1,54.1,29.67,SE,128,4.9,6.9,59,0.00,,,0.00,meteobridge,2013-09-10 08:00:00,
2013-09-10 02:05:00,68.9,54.5,29.67,SSE,157,2.9,6.0,60,0.00,,,0.00,meteobridge,2013-09-10 08:05:00,
2013-09-10 02:10:00,68.7,54.3,29.66,South,180,2.9,6.0,60,0.00,,,0.00,meteobridge,2013-09-10 08:10:00,
2013-09-10 02:15:00,68.7,54.3,29.67,ESE,111,4.0,6.9,60,0.00,,,0.00,meteobridge,2013-09-10 08:15:00,
2013-09-10 02:20:00,68.5,54.1,29.67,SSE,148,2.0,2.9,60,0.00,,,0.00,meteobridge,2013-09-10 08:20:00,
2013-09-10 02:25:00,68.4,54.0,29.67,South,178,4.9,6.9,60,0.00,,,0.00,meteobridge,2013-09-10 08:25:00,
2013-09-10 02:30:00,68.4,54.0,29.67,SSE,165,0.0,2.0,60,0.00,,,0.00,meteobridge,2013-09-10 08:30:00,
2013-09-10 02:35:00,68.0,53.6,29.67,SSE,165,0.0,0.0,60,0.00,,,0.00,meteobridge,2013-09-10 08:35:00,
2013-09-10 02:40:00,67.6,53.2,29.67,SSE,153,0.0,0.9,60,0.00,,,0.00,meteobridge,2013-09-10 08:40:00,
2013-09-10 02:45:00,67.6,53.2,29.67,SSE,153,0.0,0.9,60,0.00,,,0.00,meteobridge,2013-09-10 08:45:00,
2013-09-10 02:50:00,67.5,53.6,29.67,SSE,153,0.0,0.9,61,0.00,,,0.00,meteobridge,2013-09-10 08:50:00,
2013-09-10 02:56:00,67.5,53.6,29.67,SSE,151,0.0,2.0,61,0.00,,,0.00,meteobridge,2013-09-10 08:56:00,
2013-09-10 03:01:00,67.5,53.6,29.67,SSE,151,0.0,0.9,61,0.00,,,0.00,meteobridge,2013-09-10 09:01:00,
2013-09-10 03:06:00,67.3,53.4,29.66,SSE,151,0.0,0.0,61,0.00,,,0.00,meteobridge,2013-09-10 09:06:00,
2013-09-10 03:11:00,67.3,53.8,29.66,SSE,151,0.0,0.0,62,0.00,,,0.00,meteobridge,2013-09-10 09:11:00,
2013-09-10 03:16:00,67.1,53.6,29.66,SSE,151,0.0,0.0,62,0.00,,,0.00,meteobridge,2013-09-10 09:16:00,
2013-09-10 03:21:00,67.1,53.6,29.66,SSE,151,0.0,0.0,62,0.00,,,0.00,meteobridge,2013-09-10 09:21:00,
2013-09-10 03:26:00,66.9,53.4,29.66,SSE,151,0.0,0.0,62,0.00,,,0.00,meteobridge,2013-09-10 09:26:00,
2013-09-10 03:32:00,66.7,53.8,29.66,SSE,151,0.0,0.9,63,0.00,,,0.00,meteobridge,2013-09-10 09:32:00,
2013-09-10 03:37:00,66.9,54.0,29.66,SSE,151,0.0,0.9,63,0.00,,,0.00,meteobridge,2013-09-10 09:37:00,
2013-09-10 03:42:00,66.7,53.8,29.65,SSE,151,0.0,0.0,63,0.00,,,0.00,meteobridge,2013-09-10 09:42:00,
2013-09-10 03:47:00,66.6,54.0,29.65,SSE,151,0.0,0.0,64,0.00,,,0.00,meteobridge,2013-09-10 09:47:00,
2013-09-10 03:52:00,66.2,53.6,29.65,SSE,151,0.0,0.0,64,0.00,,,0.00,meteobridge,2013-09-10 09:52:00,
2013-09-10 03:57:00,66.0,54.0,29.65,SSE,151,0.0,0.0,65,0.00,,,0.00,meteobridge,2013-09-10 09:57:00,
2013-09-10 04:03:00,65.8,53.8,29.66,SSE,151,0.0,0.0,65,0.00,,,0.00,meteobridge,2013-09-10 10:03:00,
2013-09-10 04:08:00,65.8,53.8,29.66,SSE,151,0.0,0.0,65,0.00,,,0.00,meteobridge,2013-09-10 10:08:00,
2013-09-10 04:13:00,65.8,54.1,29.66,SSE,151,0.0,0.0,66,0.00,,,0.00,meteobridge,2013-09-10 10:13:00,
2013-09-10 04:18:00,65.7,54.0,29.66,SSE,151,0.0,0.0,66,0.00,,,0.00,meteobridge,2013-09-10 10:18:00,
2013-09-10 04:24:00,65.8,54.1,29.66,SSE,151,0.0,0.0,66,0.00,,,0.00,meteobridge,2013-09-10 10:24:00,
2013-09-10 04:29:00,65.8,54.1,29.66,SSE,151,0.0,0.0,66,0.00,,,0.00,meteobridge,2013-09-10 10:29:00,
2013-09-10 04:34:00,65.8,54.5,29.66,SSE,151,0.0,0.0,67,0.00,,,0.00,meteobridge,2013-09-10 10:34:00,
2013-09-10 04:39:00,65.8,54.5,29.66,SSE,151,0.0,0.0,67,0.00,,,0.00,meteobridge,2013-09-10 10:39:00,
2013-09-10 04:44:00,65.7,54.3,29.66,SSE,151,0.0,0.0,67,0.00,,,0.00,meteobridge,2013-09-10 10:44:00,
2013-09-10 04:49:00,66.0,54.7,29.66,SSE,151,0.0,0.0,67,0.00,,,0.00,meteobridge,2013-09-10 10:49:00,
2013-09-10 04:55:00,65.8,54.5,29.66,SSE,151,0.0,0.0,67,0.00,,,0.00,meteobridge,2013-09-10 10:55:00,
2013-09-10 05:00:00,65.8,54.5,29.66,SSE,151,0.0,0.0,67,0.00,,,0.00,meteobridge,2013-09-10 11:00:00,
2013-09-10 05:05:00,65.8,54.5,29.67,SSE,151,0.0,0.0,67,0.00,,,0.00,meteobridge,2013-09-10 11:05:00,
2013-09-10 05:10:00,65.8,55.0,29.67,SSE,151,0.0,0.0,68,0.00,,,0.00,meteobridge,2013-09-10 11:10:00,
2013-09-10 05:15:00,66.2,54.9,29.67,SSE,151,0.0,0.0,67,0.00,,,0.00,meteobridge,2013-09-10 11:15:00,
2013-09-10 05:20:00,66.4,55.6,29.67,SSE,151,0.0,0.0,68,0.00,,,0.00,meteobridge,2013-09-10 11:20:00,
2013-09-10 05:25:00,66.4,54.7,29.67,SSE,151,0.0,0.0,66,0.00,,,0.00,meteobridge,2013-09-10 11:25:00,
2013-09-10 05:31:00,66.4,54.7,29.67,SSE,151,0.0,0.0,66,0.00,,,0.00,meteobridge,2013-09-10 11:31:00,
2013-09-10 05:36:00,66.6,54.5,29.66,SSE,151,0.0,0.0,65,0.00,,,0.00,meteobridge,2013-09-10 11:36:00,
2013-09-10 05:41:00,66.4,54.7,29.67,SSE,151,0.0,0.0,66,0.00,,,0.00,meteobridge,2013-09-10 11:41:00,
2013-09-10 05:46:00,66.4,54.7,29.66,SSE,151,0.0,0.0,66,0.00,,,0.00,meteobridge,2013-09-10 11:46:00,
2013-09-10 05:51:00,66.0,54.7,29.66,SSE,151,0.0,0.0,67,0.00,,,0.00,meteobridge,2013-09-10 11:51:00,
2013-09-10 05:56:00,66.2,54.5,29.67,SSE,151,0.0,0.0,66,0.00,,,0.00,meteobridge,2013-09-10 11:56:00,
2013-09-10 06:01:00,66.4,54.7,29.67,SSE,151,0.0,0.0,66,0.00,,,0.00,meteobridge,2013-09-10 12:01:00,
2013-09-10 06:07:00,66.4,54.7,29.67,SSE,151,0.0,0.0,66,0.00,,,0.00,meteobridge,2013-09-10 12:07:00,
2013-09-10 06:12:00,66.6,54.9,29.67,SSE,151,0.0,0.0,66,0.00,,,0.00,meteobridge,2013-09-10 12:12:00,
2013-09-10 06:17:00,66.6,54.9,29.67,SSE,151,0.0,0.0,66,0.00,,,0.00,meteobridge,2013-09-10 12:17:00,
2013-09-10 06:23:00,66.6,54.9,29.67,SSE,151,0.0,0.0,66,0.00,,,0.00,meteobridge,2013-09-10 12:23:00,
2013-09-10 06:28:00,66.4,55.0,29.67,SSE,151,0.0,0.0,67,0.00,,,0.00,meteobridge,2013-09-10 12:28:00,
2013-09-10 06:33:00,66.4,55.0,29.68,SSE,151,0.0,0.0,67,0.00,,,0.00,meteobridge,2013-09-10 12:33:00,
2013-09-10 06:38:00,66.4,55.0,29.68,SSE,151,0.0,0.0,67,0.00,,,0.00,meteobridge,2013-09-10 12:38:00,
2013-09-10 06:43:00,66.2,55.4,29.68,SSE,151,0.0,0.0,68,0.00,,,0.00,meteobridge,2013-09-10 12:43:00,
2013-09-10 06:48:00,66.6,55.2,29.68,SSE,151,0.0,0.0,67,0.00,,,0.00,meteobridge,2013-09-10 12:48:00,
2013-09-10 06:53:00,66.7,54.7,29.68,SSE,151,0.0,0.9,65,0.00,,,0.00,meteobridge,2013-09-10 12:53:00,
2013-09-10 06:58:00,66.9,54.9,29.68,SSE,151,0.0,0.0,65,0.00,,,0.00,meteobridge,2013-09-10 12:58:00,
2013-09-10 07:04:00,66.9,54.3,29.69,SSE,151,0.0,0.0,64,0.00,,,0.00,meteobridge,2013-09-10 13:04:00,
2013-09-10 07:09:00,67.5,54.0,29.69,SSE,150,2.9,2.9,62,0.00,,,0.00,meteobridge,2013-09-10 13:09:00,
2013-09-10 07:14:00,67.6,54.1,29.69,ESE,102,0.9,4.0,62,0.00,,,0.00,meteobridge,2013-09-10 13:14:00,
2013-09-10 07:19:00,67.8,54.0,29.69,SSE,156,0.9,0.9,61,0.00,,,0.00,meteobridge,2013-09-10 13:19:00,
2013-09-10 07:24:00,68.0,54.0,29.70,ESE,106,0.0,0.9,61,0.00,,,0.00,meteobridge,2013-09-10 13:24:00,
2013-09-10 07:29:00,68.2,54.7,29.70,SSE,167,0.9,4.9,62,0.00,,,0.00,meteobridge,2013-09-10 13:29:00,
2013-09-10 07:34:00,68.2,54.7,29.70,SE,146,0.9,2.9,62,0.00,,,0.00,meteobridge,2013-09-10 13:34:00,
2013-09-10 07:39:00,68.4,54.9,29.70,SE,127,2.0,2.9,62,0.00,,,0.00,meteobridge,2013-09-10 13:39:00,
2013-09-10 07:44:00,68.4,54.9,29.70,ESE,113,0.0,2.0,62,0.00,,,0.00,meteobridge,2013-09-10 13:44:00,
2013-09-10 07:49:00,68.5,55.4,29.70,SSE,156,2.0,2.0,63,0.00,,,0.00,meteobridge,2013-09-10 13:49:00,
2013-09-10 07:54:00,68.7,55.2,29.70,SSE,155,0.0,4.9,62,0.00,,,0.00,meteobridge,2013-09-10 13:54:00,
2013-09-10 07:59:00,68.9,55.4,29.70,SSE,154,0.0,6.0,62,0.00,,,0.00,meteobridge,2013-09-10 13:59:00,
2013-09-10 08:04:00,69.1,55.6,29.70,SSE,161,4.0,4.9,62,0.00,,,0.00,meteobridge,2013-09-10 14:04:00,
2013-09-10 08:09:00,69.1,55.6,29.71,SE,129,0.0,2.9,62,0.00,,,0.00,meteobridge,2013-09-10 14:09:00,
2013-09-10 08:14:00,69.1,55.6,29.71,ESE,119,2.0,4.0,62,0.00,,,0.00,meteobridge,2013-09-10 14:14:00,
2013-09-10 08:20:00,69.1,55.6,29.71,SE,130,0.9,6.0,62,0.00,,,0.00,meteobridge,2013-09-10 14:20:00,
2013-09-10 08:25:00,69.3,55.8,29.71,SSE,160,6.0,6.9,62,0.00,,,0.00,meteobridge,2013-09-10 14:25:00,
2013-09-10 08:30:00,69.3,56.1,29.71,SE,130,2.9,8.1,63,0.00,,,0.00,meteobridge,2013-09-10 14:30:00,
2013-09-10 08:35:00,68.9,57.6,29.72,SSW,207,2.0,4.0,67,0.00,,,0.00,meteobridge,2013-09-10 14:35:00,
2013-09-10 08:40:00,68.2,58.1,29.72,SSW,213,2.9,6.9,70,0.00,,,0.00,meteobridge,2013-09-10 14:40:00,
2013-09-10 08:45:00,67.1,58.8,29.72,SE,142,2.0,4.9,75,0.00,,,0.00,meteobridge,2013-09-10 14:45:00,
2013-09-10 08:50:00,66.2,59.2,29.72,SSW,192,2.0,6.0,78,0.01,,,0.01,meteobridge,2013-09-10 14:50:00,
2013-09-10 08:55:00,65.5,59.5,29.72,South,180,0.0,4.0,81,0.01,,,0.01,meteobridge,2013-09-10 14:55:00,
2013-09-10 09:00:00,65.1,59.5,29.73,South,189,0.9,4.0,82,0.01,,,0.01,meteobridge,2013-09-10 15:00:00,
2013-09-10 09:05:00,64.8,59.9,29.73,South,171,2.9,6.9,84,0.02,,,0.02,meteobridge,2013-09-10 15:05:00,
2013-09-10 09:10:00,64.2,59.9,29.73,SSE,158,2.0,4.0,86,0.03,,,0.03,meteobridge,2013-09-10 15:10:00,
2013-09-10 09:15:00,63.9,59.9,29.73,South,190,0.9,4.9,87,0.04,,,0.04,meteobridge,2013-09-10 15:15:00,
2013-09-10 09:20:00,63.9,60.6,29.73,SSW,207,2.9,4.0,89,0.04,,,0.04,meteobridge,2013-09-10 15:20:00,
2013-09-10 09:25:00,63.9,60.6,29.74,SSE,152,4.0,4.9,89,0.04,,,0.04,meteobridge,2013-09-10 15:25:00,
2013-09-10 09:30:00,63.7,60.4,29.74,SSE,160,2.9,4.9,89,0.04,,,0.04,meteobridge,2013-09-10 15:30:00,
2013-09-10 09:35:00,63.9,60.6,29.74,SSE,159,0.0,2.0,89,0.04,,,0.04,meteobridge,2013-09-10 15:35:00,
2013-09-10 09:40:00,64.0,60.8,29.74,SSE,153,0.9,2.0,89,0.04,,,0.04,meteobridge,2013-09-10 15:40:00,
2013-09-10 09:45:00,63.9,60.3,29.73,SSW,201,0.0,2.0,88,0.04,,,0.04,meteobridge,2013-09-10 15:45:00,
2013-09-10 09:50:00,64.0,60.8,29.73,SSW,201,0.0,0.9,89,0.04,,,0.05,meteobridge,2013-09-10 15:50:00,
2013-09-10 09:55:00,64.2,61.0,29.73,SSW,201,0.0,0.0,89,0.04,,,0.05,meteobridge,2013-09-10 15:55:00,
2013-09-10 10:00:00,64.2,60.6,29.73,SSW,201,0.0,2.0,88,0.04,,,0.05,meteobridge,2013-09-10 16:00:00,
2013-09-10 10:05:00,64.8,61.7,29.73,SSW,201,0.9,0.9,90,0.03,,,0.05,meteobridge,2013-09-10 16:05:00,
2013-09-10 10:10:00,65.1,61.9,29.73,SSW,201,0.9,0.9,89,0.01,,,0.05,meteobridge,2013-09-10 16:10:00,
2013-09-10 10:15:00,65.8,62.2,29.73,SSW,201,0.0,0.0,88,0.01,,,0.05,meteobridge,2013-09-10 16:15:00,
2013-09-10 10:20:00,66.0,61.0,29.73,SSW,201,0.0,0.9,84,0.01,,,0.05,meteobridge,2013-09-10 16:20:00,
2013-09-10 10:25:00,66.6,61.5,29.73,SSW,197,2.0,2.0,84,0.01,,,0.05,meteobridge,2013-09-10 16:25:00,
2013-09-10 10:30:00,66.9,61.5,29.73,SSE,158,0.9,4.9,83,0.01,,,0.05,meteobridge,2013-09-10 16:30:00,
2013-09-10 10:36:00,67.5,60.1,29.73,SSE,155,4.0,8.1,77,0.01,,,0.05,meteobridge,2013-09-10 16:36:00,
2013-09-10 10:41:00,68.4,60.8,29.72,East,94,0.9,2.9,77,0.01,,,0.05,meteobridge,2013-09-10 16:41:00,
2013-09-10 10:46:00,68.9,59.9,29.72,ESE,107,2.9,6.9,73,0.00,,,0.05,meteobridge,2013-09-10 16:46:00,
2013-09-10 10:51:00,69.6,60.3,29.72,SSE,150,4.9,4.9,72,0.00,,,0.05,meteobridge,2013-09-10 16:51:00,
2013-09-10 10:56:00,69.6,58.6,29.72,SE,141,0.9,6.9,68,0.00,,,0.05,meteobridge,2013-09-10 16:56:00,
2013-09-10 11:01:00,70.0,60.1,29.72,SSE,165,2.9,4.0,71,0.00,,,0.05,meteobridge,2013-09-10 17:01:00,
2013-09-10 11:06:00,70.5,59.0,29.72,East,95,2.0,6.0,67,0.00,,,0.05,meteobridge,2013-09-10 17:06:00,
2013-09-10 11:11:00,70.9,58.1,29.72,South,174,2.0,6.0,64,0.00,,,0.05,meteobridge,2013-09-10 17:11:00,
2013-09-10 11:16:00,70.9,57.7,29.72,SE,145,4.0,6.9,63,0.00,,,0.05,meteobridge,2013-09-10 17:16:00,
2013-09-10 11:21:00,71.4,58.1,29.72,SSE,153,0.9,4.0,63,0.00,,,0.05,meteobridge,2013-09-10 17:21:00,
2013-09-10 11:26:00,72.1,57.6,29.72,SSE,147,6.0,6.9,60,0.00,,,0.05,meteobridge,2013-09-10 17:26:00,
2013-09-10 11:31:00,72.0,57.7,29.72,ENE,69,0.9,8.1,61,0.00,,,0.05,meteobridge,2013-09-10 17:31:00,
2013-09-10 11:36:00,72.0,57.7,29.72,SE,130,2.0,6.9,61,0.00,,,0.05,meteobridge,2013-09-10 17:36:00,
2013-09-10 11:41:00,71.8,57.2,29.72,East,90,2.9,8.1,60,0.00,,,0.05,meteobridge,2013-09-10 17:41:00,
2013-09-10 11:46:00,72.5,57.7,29.72,SSW,202,0.9,2.9,60,0.00,,,0.05,meteobridge,2013-09-10 17:46:00,
2013-09-10 11:51:00,73.2,57.0,29.71,SE,139,2.9,4.9,57,0.00,,,0.05,meteobridge,2013-09-10 17:51:00,
2013-09-10 11:56:00,73.8,57.6,29.71,SSE,147,6.0,8.1,57,0.00,,,0.05,meteobridge,2013-09-10 17:56:00,
2013-09-10 12:01:00,74.1,56.5,29.71,ESE,102,2.9,11.0,54,0.00,,,0.05,meteobridge,2013-09-10 18:01:00,
2013-09-10 12:06:00,74.3,56.1,29.72,South,169,11.0,11.0,53,0.00,,,0.05,meteobridge,2013-09-10 18:06:00,
2013-09-10 12:11:00,73.6,56.5,29.72,ESE,117,4.9,12.1,55,0.00,,,0.05,meteobridge,2013-09-10 18:11:00,
2013-09-10 12:16:00,72.9,55.8,29.72,SE,129,2.9,11.0,55,0.00,,,0.05,meteobridge,2013-09-10 18:16:00,
2013-09-10 12:21:00,72.7,55.6,29.72,SE,128,6.9,10.1,55,0.00,,,0.05,meteobridge,2013-09-10 18:21:00,
2013-09-10 12:26:00,72.0,56.3,29.72,SSE,158,8.9,8.9,58,0.00,,,0.05,meteobridge,2013-09-10 18:26:00,
2013-09-10 12:32:00,71.8,56.7,29.72,SSE,149,6.0,10.1,59,0.00,,,0.05,meteobridge,2013-09-10 18:32:00,
2013-09-10 12:37:00,71.8,56.1,29.72,ESE,123,4.0,12.1,58,0.00,,,0.05,meteobridge,2013-09-10 18:37:00,
2013-09-10 12:42:00,71.8,57.2,29.72,SSW,202,4.0,8.9,60,0.00,,,0.05,meteobridge,2013-09-10 18:42:00,
2013-09-10 12:47:00,71.2,57.0,29.72,SSE,147,4.9,15.0,61,0.00,,,0.05,meteobridge,2013-09-10 18:47:00,
2013-09-10 12:52:00,70.5,57.7,29.72,South,174,4.0,8.9,64,0.00,,,0.05,meteobridge,2013-09-10 18:52:00,
2013-09-10 12:57:00,70.9,57.2,29.72,SE,134,2.9,6.9,62,0.00,,,0.05,meteobridge,2013-09-10 18:57:00,
2013-09-10 13:02:00,71.1,57.7,29.72,SSE,148,6.0,10.1,63,0.00,,,0.05,meteobridge,2013-09-10 19:02:00,
2013-09-10 13:07:00,70.2,58.6,29.72,East,79,2.9,6.0,67,0.00,,,0.05,meteobridge,2013-09-10 19:07:00,
2013-09-10 13:12:00,69.4,58.5,29.73,South,176,8.1,11.0,68,0.00,,,0.05,meteobridge,2013-09-10 19:12:00,
2013-09-10 13:17:00,68.9,59.5,29.73,SSE,157,11.0,11.0,72,0.00,,,0.05,meteobridge,2013-09-10 19:17:00,
2013-09-10 13:22:00,68.5,59.9,29.73,SSE,161,6.9,8.1,74,0.01,,,0.06,meteobridge,2013-09-10 19:22:00,
2013-09-10 13:27:00,68.0,60.1,29.73,SSE,148,2.9,6.9,76,0.01,,,0.06,meteobridge,2013-09-10 19:27:00,
2013-09-10 13:32:00,67.5,59.5,29.74,ESE,121,0.9,8.1,76,0.01,,,0.06,meteobridge,2013-09-10 19:32:00,
2013-09-10 13:37:00,66.9,59.5,29.74,South,175,6.9,6.9,77,0.01,,,0.06,meteobridge,2013-09-10 19:37:00,
2013-09-10 13:42:00,66.4,59.0,29.74,South,178,2.9,8.1,77,0.01,,,0.06,meteobridge,2013-09-10 19:42:00,
2013-09-10 13:47:00,65.8,59.2,29.74,SSE,160,4.9,8.1,79,0.02,,,0.07,meteobridge,2013-09-10 19:47:00,
2013-09-10 13:52:00,65.1,59.5,29.75,South,178,4.9,8.1,82,0.03,,,0.08,meteobridge,2013-09-10 19:52:00,
2013-09-10 13:57:00,64.6,59.4,29.75,SE,132,2.0,8.1,83,0.04,,,0.09,meteobridge,2013-09-10 19:57:00,
2013-09-10 14:02:00,63.9,59.2,29.74,SSE,163,2.0,8.9,85,0.06,,,0.11,meteobridge,2013-09-10 20:02:00,
2013-09-10 14:07:00,63.7,59.4,29.74,South,173,4.0,4.9,86,0.07,,,0.12,meteobridge,2013-09-10 20:07:00,
2013-09-10 14:12:00,63.3,59.4,29.75,SSE,155,2.9,4.0,87,0.08,,,0.13,meteobridge,2013-09-10 20:12:00,
2013-09-10 14:17:00,63.1,59.2,29.75,ESE,114,2.0,4.9,87,0.09,,,0.14,meteobridge,2013-09-10 20:17:00,
2013-09-10 14:23:00,63.1,59.5,29.75,SSE,160,0.0,0.9,88,0.09,,,0.15,meteobridge,2013-09-10 20:23:00,
2013-09-10 14:28:00,63.3,60.3,29.74,SSE,160,0.9,0.9,90,0.10,,,0.16,meteobridge,2013-09-10 20:28:00,
2013-09-10 14:33:00,63.3,60.3,29.75,South,189,0.0,0.0,90,0.10,,,0.16,meteobridge,2013-09-10 20:33:00,
2013-09-10 14:38:00,63.3,60.3,29.74,SSW,210,0.0,2.0,90,0.10,,,0.16,meteobridge,2013-09-10 20:38:00,
2013-09-10 14:43:00,63.7,61.0,29.74,SSW,210,0.0,0.9,91,0.10,,,0.17,meteobridge,2013-09-10 20:43:00,
2013-09-10 14:48:00,63.9,61.2,29.74,WSW,246,0.0,0.0,91,0.10,,,0.17,meteobridge,2013-09-10 20:48:00,
2013-09-10 14:53:00,64.0,61.3,29.74,WSW,246,0.0,0.0,91,0.09,,,0.17,meteobridge,2013-09-10 20:53:00,
2013-09-10 14:59:00,64.2,61.2,29.73,WSW,246,0.0,0.0,90,0.06,,,0.17,meteobridge,2013-09-10 20:59:00,
2013-09-10 15:04:00,64.8,61.7,29.73,WSW,246,0.0,0.0,90,0.05,,,0.17,meteobridge,2013-09-10 21:04:00,
2013-09-10 15:09:00,65.1,61.9,29.73,WSW,246,0.0,2.0,89,0.04,,,0.17,meteobridge,2013-09-10 21:09:00,
2013-09-10 15:14:00,65.5,62.4,29.73,WSW,246,0.0,0.9,90,0.03,,,0.17,meteobridge,2013-09-10 21:14:00,
2013-09-10 15:19:00,65.8,62.2,29.73,WSW,248,0.0,2.0,88,0.02,,,0.17,meteobridge,2013-09-10 21:19:00,
2013-09-10 15:24:00,66.4,62.8,29.73,WSW,248,0.0,0.9,88,0.01,,,0.17,meteobridge,2013-09-10 21:24:00,
2013-09-10 15:29:00,66.4,62.4,29.73,WSW,248,0.0,2.9,87,0.01,,,0.17,meteobridge,2013-09-10 21:29:00,
2013-09-10 15:35:00,66.2,62.2,29.73,WSW,248,0.9,0.9,87,0.01,,,0.17,meteobridge,2013-09-10 21:35:00,
2013-09-10 15:40:00,65.8,61.9,29.74,WSW,248,0.0,0.9,87,0.00,,,0.17,meteobridge,2013-09-10 21:40:00,
2013-09-10 15:45:00,65.8,62.2,29.73,WSW,248,0.9,0.9,88,0.00,,,0.17,meteobridge,2013-09-10 21:45:00,
2013-09-10 15:50:00,65.7,62.2,29.74,WSW,248,0.0,0.0,89,0.01,,,0.18,meteobridge,2013-09-10 21:50:00,
2013-09-10 15:55:00,65.7,62.6,29.74,WSW,248,0.0,0.9,90,0.01,,,0.18,meteobridge,2013-09-10 21:55:00,
2013-09-10 16:00:00,65.7,62.6,29.74,WSW,248,0.0,0.9,90,0.01,,,0.18,meteobridge,2013-09-10 22:00:00,
2013-09-10 16:05:00,65.5,62.8,29.75,WSW,248,0.0,0.0,91,0.03,,,0.20,meteobridge,2013-09-10 22:05:00,
2013-09-10 16:10:00,65.1,62.4,29.75,West,275,0.9,0.9,91,0.04,,,0.21,meteobridge,2013-09-10 22:10:00,
2013-09-10 16:16:00,64.8,62.1,29.75,SW,232,0.0,0.9,91,0.05,,,0.22,meteobridge,2013-09-10 22:16:00,
2013-09-10 16:21:00,64.6,62.2,29.75,SE,145,0.9,0.9,92,0.06,,,0.23,meteobridge,2013-09-10 22:21:00,
2013-09-10 16:26:00,64.2,61.9,29.75,West,266,0.0,0.0,92,0.08,,,0.25,meteobridge,2013-09-10 22:26:00,
2013-09-10 16:31:00,64.0,62.1,29.75,WSW,257,2.0,2.0,93,0.09,,,0.26,meteobridge,2013-09-10 22:31:00,
2013-09-10 16:36:00,64.0,62.1,29.76,West,271,0.0,2.0,93,0.11,,,0.28,meteobridge,2013-09-10 22:36:00,
2013-09-10 16:41:00,63.7,61.7,29.76,SW,220,2.9,4.9,93,0.12,,,0.29,meteobridge,2013-09-10 22:41:00,
2013-09-10 16:46:00,63.3,61.3,29.76,West,263,0.0,4.9,93,0.17,,,0.35,meteobridge,2013-09-10 22:46:00,
2013-09-10 16:51:00,63.1,61.2,29.76,WSW,250,0.0,0.9,93,0.21,,,0.39,meteobridge,2013-09-10 22:51:00,
2013-09-10 16:56:00,63.1,61.2,29.75,WSW,250,0.0,0.9,93,0.24,,,0.42,meteobridge,2013-09-10 22:56:00,
2013-09-10 17:01:00,63.0,61.2,29.76,WSW,250,0.0,0.9,94,0.25,,,0.44,meteobridge,2013-09-10 23:01:00,
2013-09-10 17:07:00,63.1,61.3,29.75,WSW,250,0.0,0.0,94,0.27,,,0.47,meteobridge,2013-09-10 23:07:00,
2013-09-10 17:12:00,63.0,61.2,29.76,WSW,250,0.0,0.0,94,0.27,,,0.48,meteobridge,2013-09-10 23:12:00,
2013-09-10 17:17:00,63.0,61.2,29.75,WSW,250,0.0,0.0,94,0.28,,,0.50,meteobridge,2013-09-10 23:17:00,
2013-09-10 17:22:00,63.1,61.7,29.76,NW,322,0.0,0.9,95,0.27,,,0.51,meteobridge,2013-09-10 23:22:00,
2013-09-10 17:27:00,63.1,61.3,29.76,NW,322,0.9,0.9,94,0.27,,,0.52,meteobridge,2013-09-10 23:27:00,
2013-09-10 17:32:00,63.0,61.5,29.76,NW,322,0.0,0.0,95,0.26,,,0.53,meteobridge,2013-09-10 23:32:00,
2013-09-10 17:38:00,63.1,61.7,29.76,NW,322,0.0,0.9,95,0.25,,,0.54,meteobridge,2013-09-10 23:38:00,
2013-09-10 17:43:00,63.1,61.7,29.75,NE,44,0.0,2.9,95,0.23,,,0.55,meteobridge,2013-09-10 23:43:00,
2013-09-10 17:48:00,63.1,61.7,29.76,NE,34,0.0,0.9,95,0.18,,,0.55,meteobridge,2013-09-10 23:48:00,
2013-09-10 17:53:00,63.3,61.9,29.77,NE,34,0.0,0.0,95,0.13,,,0.55,meteobridge,2013-09-10 23:53:00,
2013-09-10 17:58:00,63.5,62.1,29.77,NE,34,0.0,0.0,95,0.11,,,0.55,meteobridge,2013-09-10 23:58:00,
2013-09-10 18:03:00,63.7,61.9,29.77,NE,34,0.0,0.0,94,0.09,,,0.55,meteobridge,2013-09-11 00:03:00,
2013-09-10 18:09:00,63.7,61.9,29.77,NE,34,0.0,0.0,94,0.07,,,0.55,meteobridge,2013-09-11 00:09:00,
2013-09-10 18:14:00,63.9,62.1,29.77,NE,34,0.9,0.9,94,0.06,,,0.55,meteobridge,2013-09-11 00:14:00,
2013-09-10 18:19:00,63.7,61.9,29.78,NE,34,0.0,0.0,94,0.04,,,0.55,meteobridge,2013-09-11 00:19:00,
2013-09-10 18:24:00,63.7,61.9,29.78,NE,34,0.0,0.0,94,0.03,,,0.55,meteobridge,2013-09-11 00:24:00,
2013-09-10 18:29:00,63.7,61.9,29.78,NE,34,0.0,0.0,94,0.02,,,0.55,meteobridge,2013-09-11 00:29:00,
2013-09-10 18:34:00,63.9,62.1,29.78,NE,34,0.0,0.0,94,0.02,,,0.56,meteobridge,2013-09-11 00:34:00,
2013-09-10 18:39:00,63.7,61.9,29.78,NE,34,0.0,0.0,94,0.01,,,0.56,meteobridge,2013-09-11 00:39:00,
2013-09-10 18:45:00,63.5,61.7,29.78,NE,34,0.0,0.0,94,0.02,,,0.57,meteobridge,2013-09-11 00:45:00,
2013-09-10 18:50:00,63.5,61.7,29.79,NE,34,0.0,0.0,94,0.02,,,0.57,meteobridge,2013-09-11 00:50:00,
2013-09-10 18:55:00,63.3,61.5,29.79,NE,34,0.0,0.0,94,0.02,,,0.57,meteobridge,2013-09-11 00:55:00,
2013-09-10 19:00:00,63.1,61.3,29.79,NE,34,0.0,0.9,94,0.02,,,0.57,meteobridge,2013-09-11 01:00:00,
2013-09-10 19:05:00,63.1,61.7,29.79,NE,34,0.0,0.0,95,0.02,,,0.57,meteobridge,2013-09-11 01:05:00,
2013-09-10 19:10:00,63.1,61.7,29.79,NE,34,0.9,0.9,95,0.02,,,0.57,meteobridge,2013-09-11 01:10:00,
2013-09-10 19:15:00,63.1,61.3,29.79,NE,37,0.9,2.0,94,0.02,,,0.57,meteobridge,2013-09-11 01:15:00,
2013-09-10 19:20:00,63.0,61.5,29.79,NE,37,2.0,2.0,95,0.02,,,0.57,meteobridge,2013-09-11 01:20:00,
2013-09-10 19:25:00,63.0,61.5,29.80,North,355,0.0,2.9,95,0.02,,,0.57,meteobridge,2013-09-11 01:25:00,
2013-09-10 19:31:00,63.1,61.7,29.80,North,355,0.9,2.0,95,0.02,,,0.57,meteobridge,2013-09-11 01:31:00,
2013-09-10 19:36:00,63.0,61.5,29.80,NNE,12,0.0,2.0,95,0.01,,,0.57,meteobridge,2013-09-11 01:36:00,
2013-09-10 19:41:00,63.0,61.5,29.80,NNE,12,0.0,0.9,95,0.01,,,0.57,meteobridge,2013-09-11 01:41:00,
2013-09-10 19:46:00,63.0,61.5,29.80,North,0,0.0,4.0,95,0.00,,,0.57,meteobridge,2013-09-11 01:46:00,
2013-09-10 19:51:00,62.8,61.0,29.80,North,0,0.0,2.0,94,0.00,,,0.57,meteobridge,2013-09-11 01:51:00,
2013-09-10 19:57:00,62.6,60.8,29.80,North,0,0.0,0.0,94,0.01,,,0.58,meteobridge,2013-09-11 01:57:00,
2013-09-10 20:02:00,62.6,61.2,29.80,North,0,0.0,0.9,95,0.01,,,0.58,meteobridge,2013-09-11 02:02:00,
2013-09-10 20:07:00,62.8,61.3,29.80,North,0,0.0,0.0,95,0.01,,,0.58,meteobridge,2013-09-11 02:07:00,
2013-09-10 20:12:00,62.8,61.3,29.81,North,0,0.9,0.9,95,0.01,,,0.58,meteobridge,2013-09-11 02:12:00,
2013-09-10 20:17:00,63.0,61.5,29.81,North,0,0.0,0.9,95,0.01,,,0.58,meteobridge,2013-09-11 02:17:00,
2013-09-10 20:22:00,63.0,61.5,29.82,North,0,0.0,0.0,95,0.01,,,0.58,meteobridge,2013-09-11 02:22:00,
2013-09-10 20:28:00,63.0,61.5,29.82,North,0,0.9,0.9,95,0.01,,,0.58,meteobridge,2013-09-11 02:28:00,
2013-09-10 20:33:00,63.0,61.5,29.82,North,0,0.0,0.0,95,0.01,,,0.58,meteobridge,2013-09-11 02:33:00,
2013-09-10 20:38:00,63.0,61.5,29.82,North,0,0.0,0.0,95,0.01,,,0.58,meteobridge,2013-09-11 02:38:00,
2013-09-10 20:43:00,63.0,61.5,29.83,North,0,0.0,0.0,95,0.01,,,0.58,meteobridge,2013-09-11 02:43:00,
2013-09-10 20:48:00,63.1,61.7,29.83,North,0,0.0,0.0,95,0.01,,,0.58,meteobridge,2013-09-11 02:48:00,
2013-09-10 20:53:00,63.0,61.5,29.83,North,0,0.0,0.9,95,0.01,,,0.59,meteobridge,2013-09-11 02:53:00,
2013-09-10 20:58:00,63.1,62.1,29.83,North,0,0.0,0.0,96,0.01,,,0.59,meteobridge,2013-09-11 02:58:00,
2013-09-10 21:03:00,63.1,62.1,29.83,North,0,0.0,0.0,96,0.01,,,0.59,meteobridge,2013-09-11 03:03:00,
2013-09-10 21:09:00,63.1,62.1,29.83,North,0,0.0,0.9,96,0.02,,,0.60,meteobridge,2013-09-11 03:09:00,
2013-09-10 21:14:00,63.1,62.1,29.83,North,0,0.0,0.9,96,0.02,,,0.60,meteobridge,2013-09-11 03:14:00,
2013-09-10 21:19:00,63.0,61.5,29.83,North,0,0.0,0.0,95,0.02,,,0.60,meteobridge,2013-09-11 03:19:00,
2013-09-10 21:24:00,63.0,61.5,29.83,North,0,0.0,0.0,95,0.02,,,0.60,meteobridge,2013-09-11 03:24:00,
2013-09-10 21:29:00,63.0,61.9,29.83,North,0,0.0,0.9,96,0.03,,,0.61,meteobridge,2013-09-11 03:29:00,
2013-09-10 21:34:00,63.0,61.9,29.84,North,0,0.0,0.9,96,0.03,,,0.61,meteobridge,2013-09-11 03:34:00,
2013-09-10 21:40:00,62.8,61.3,29.84,North,0,0.0,0.0,95,0.03,,,0.61,meteobridge,2013-09-11 03:40:00,
2013-09-10 21:45:00,62.8,61.3,29.84,North,0,0.0,0.9,95,0.04,,,0.62,meteobridge,2013-09-11 03:45:00,
2013-09-10 21:50:00,63.0,61.9,29.84,East,97,0.0,0.9,96,0.05,,,0.64,meteobridge,2013-09-11 03:50:00,
2013-09-10 21:55:00,62.4,61.0,29.84,East,96,0.0,0.9,95,0.06,,,0.65,meteobridge,2013-09-11 03:55:00,
2013-09-10 22:00:00,62.2,60.8,29.84,East,94,0.0,0.9,95,0.08,,,0.67,meteobridge,2013-09-11 04:00:00,
2013-09-10 22:01:00,62.2,60.8,29.84,East,94,0.0,0.9,95,0.08,,,0.67,meteobridge,2013-09-11 04:01:00,
2013-09-10 22:02:00,62.1,60.6,29.84,East,94,0.0,0.9,95,0.08,,,0.67,meteobridge,2013-09-11 04:02:00,
2013-09-10 22:03:00,62.2,60.8,29.84,East,94,0.0,0.9,95,0.08,,,0.67,meteobridge,2013-09-11 04:03:00,
2013-09-10 22:08:00,62.1,60.6,29.84,East,94,0.0,0.0,95,0.08,,,0.68,meteobridge,2013-09-11 04:08:00,
2013-09-10 22:14:00,61.9,60.4,29.85,East,94,0.0,0.0,95,0.09,,,0.69,meteobridge,2013-09-11 04:14:00,
2013-09-10 22:19:00,61.9,60.4,29.84,East,94,0.0,0.0,95,0.09,,,0.69,meteobridge,2013-09-11 04:19:00,
2013-09-10 22:24:00,61.9,60.8,29.85,East,94,0.0,0.0,96,0.09,,,0.69,meteobridge,2013-09-11 04:24:00,
2013-09-10 22:29:00,62.1,60.6,29.85,East,94,0.0,0.0,95,0.09,,,0.70,meteobridge,2013-09-11 04:29:00,
2013-09-10 22:35:00,62.1,61.0,29.85,East,94,0.0,0.0,96,0.09,,,0.70,meteobridge,2013-09-11 04:35:00,
2013-09-10 22:40:00,62.1,60.6,29.85,East,94,0.0,0.0,95,0.09,,,0.70,meteobridge,2013-09-11 04:40:00,
2013-09-10 22:45:00,62.1,61.0,29.85,East,94,0.0,0.9,96,0.08,,,0.71,meteobridge,2013-09-11 04:45:00,
2013-09-10 22:50:00,62.1,60.6,29.84,East,94,0.0,0.0,95,0.06,,,0.71,meteobridge,2013-09-11 04:50:00,
2013-09-10 22:55:00,62.1,60.6,29.84,East,94,0.0,0.9,95,0.05,,,0.71,meteobridge,2013-09-11 04:55:00,
2013-09-10 23:00:00,62.1,60.6,29.84,East,94,0.0,0.0,95,0.04,,,0.71,meteobridge,2013-09-11 05:00:00,
2013-09-10 23:05:00,62.1,60.6,29.84,East,94,0.0,0.0,95,0.03,,,0.71,meteobridge,2013-09-11 05:05:00,
2013-09-10 23:10:00,62.1,60.6,29.85,East,94,0.0,0.0,95,0.02,,,0.71,meteobridge,2013-09-11 05:10:00,
2013-09-10 23:15:00,62.1,60.6,29.85,East,94,0.0,0.0,95,0.02,,,0.71,meteobridge,2013-09-11 05:15:00,
2013-09-10 23:20:00,62.1,61.0,29.85,East,94,0.0,0.0,96,0.02,,,0.71,meteobridge,2013-09-11 05:20:00,
2013-09-10 23:25:00,62.1,61.0,29.84,East,94,0.0,0.0,96,0.02,,,0.71,meteobridge,2013-09-11 05:25:00,
2013-09-10 23:30:00,62.1,61.0,29.84,East,94,0.0,0.0,96,0.01,,,0.71,meteobridge,2013-09-11 05:30:00,
2013-09-10 23:36:00,62.2,61.2,29.84,East,94,0.0,0.0,96,0.01,,,0.71,meteobridge,2013-09-11 05:36:00,
2013-09-10 23:41:00,62.2,61.2,29.84,East,94,0.0,0.0,96,0.00,,,0.71,meteobridge,2013-09-11 05:41:00,
2013-09-10 23:46:00,62.2,61.2,29.84,East,94,0.0,0.0,96,0.00,,,0.71,meteobridge,2013-09-11 05:46:00,
2013-09-10 23:51:00,62.2,61.2,29.84,East,94,0.0,0.0,96,0.00,,,0.71,meteobridge,2013-09-11 05:51:00,
2013-09-10 23:56:00,62.2,61.2,29.84,South,174,2.0,2.0,96,0.00,,,0.71,meteobridge,2013-09-11 05:56:00,